2024-252B

Last updated on Thu Jan 23 2025 00:02:05 GMT+0000 (Coordinated Universal Time)

1 62455U 24252B 25021.95833333 -.00000113 00000+0 00000+0 0 9998 2 62455 11.0838 357.6757 7905305 184.9178 265.7366 1.09000805 257
UTC large
Height (km)
Speed (km/s)
/
Latitude / Longitude
Inclination (degrees)
Orbital Period (minutes)
Azimuth
Elevation
Range (km)
Doppler Factor

Next 0 passes for location: London (51.5072 / 0.1276)

Sorry there are no passes over London.